TimeCDT,TemperatureF,Dew PointF,Humidity,Sea Level PressureIn,VisibilityMPH,Wind Direction,Wind SpeedMPH,Gust SpeedMPH,PrecipitationIn,Events,Conditions,WindDirDegrees,DateUTC
12:56 AM,36.0,23.0,59,30.45,10.0,NNW,3.5,-,N/A,,Clear,340,2013-05-03 05:56:00
1:56 AM,34.0,24.1,67,30.43,10.0,North,4.6,-,N/A,,Clear,10,2013-05-03 06:56:00
2:56 AM,33.1,24.1,70,30.41,10.0,NW,4.6,-,N/A,,Clear,320,2013-05-03 07:56:00
3:56 AM,32.0,25.0,75,30.40,10.0,NW,6.9,-,N/A,,Clear,310,2013-05-03 08:56:00
4:56 AM,30.9,25.0,79,30.38,10.0,NW,8.1,-,N/A,,Clear,310,2013-05-03 09:56:00
5:56 AM,30.0,24.1,79,30.39,10.0,NNW,6.9,-,N/A,,Clear,330,2013-05-03 10:56:00
6:56 AM,30.0,24.1,79,30.38,10.0,NNW,8.1,-,N/A,,Clear,340,2013-05-03 11:56:00
7:56 AM,32.0,25.0,75,30.37,10.0,NNW,10.4,-,N/A,,Clear,340,2013-05-03 12:56:00
8:56 AM,35.1,26.1,70,30.35,10.0,North,11.5,-,N/A,,Clear,10,2013-05-03 13:56:00
9:56 AM,37.9,25.0,60,30.32,10.0,North,16.1,-,N/A,,Clear,350,2013-05-03 14:56:00
10:56 AM,41.0,25.0,53,30.30,10.0,North,16.1,23.0,N/A,,Clear,360,2013-05-03 15:56:00
11:56 AM,44.1,24.1,45,30.26,10.0,North,19.6,27.6,N/A,,Clear,360,2013-05-03 16:56:00
12:56 PM,46.0,24.1,42,30.23,10.0,North,24.2,28.8,N/A,,Clear,350,2013-05-03 17:56:00
1:56 PM,48.9,26.1,41,30.21,10.0,North,17.3,26.5,N/A,,Clear,360,2013-05-03 18:56:00
2:56 PM,50.0,25.0,38,30.19,10.0,North,19.6,28.8,N/A,,Clear,350,2013-05-03 19:56:00
3:56 PM,53.1,26.1,35,30.16,10.0,North,19.6,24.2,N/A,,Clear,360,2013-05-03 20:56:00
4:56 PM,53.1,23.0,31,30.13,10.0,North,20.7,28.8,N/A,,Clear,350,2013-05-03 21:56:00
5:56 PM,53.1,19.9,27,30.12,10.0,North,24.2,29.9,N/A,,Clear,10,2013-05-03 22:56:00
6:56 PM,51.1,17.1,26,30.12,10.0,North,18.4,28.8,N/A,,Clear,10,2013-05-03 23:56:00
7:56 PM,50.0,19.0,29,30.11,10.0,North,17.3,-,N/A,,Clear,10,2013-05-04 00:56:00
8:56 PM,46.0,21.0,37,30.12,10.0,North,10.4,-,N/A,,Clear,10,2013-05-04 01:56:00
9:56 PM,44.1,24.1,45,30.13,10.0,NNE,10.4,-,N/A,,Clear,20,2013-05-04 02:56:00
10:56 PM,42.1,26.1,53,30.13,10.0,NNE,10.4,-,N/A,,Clear,20,2013-05-04 03:56:00
11:56 PM,41.0,26.1,55,30.12,10.0,North,9.2,-,N/A,,Scattered Clouds,10,2013-05-04 04:56:00